Location: ???? ?????
(30.0052°N, 31.2891°E)
Time: 20:06:13
(UTC+00:00)

Cosmos 1331 Rocket - Pass Details

Date: 06 October 2022
Orbit: 748 x 778 km, 74.0° (Epoch: 06 December)

Event Time Altitude Azimuth Distance (km) Brightness Sun altitude
Exits shadow 01:43:18 40° 4° (N) 1,086 4.8 -28.3°
Drops below altitude 10° 01:46:37 10° 12° (NNE) 2,271 6.7 -27.6°
Sets 01:48:59 0° 14° (NNE) 3,201 7.5 -27.1°
